Change the Weather History Date:

Monday, April 29, 2013

  Actual Average Record
Temperature  
Mean Temperature 48 °F 48 °F  
Max Temperature 63 °F 63 °F 95 °F (1939)
Min Temperature 33 °F 34 °F 12 °F (1966)
Degree Days  
Heating Degree Days 17 17  
Month to date heating degree days 704 603  
Since 1 July heating degree days 7567 7721  
Cooling Degree Days 0 0  
Month to date cooling degree days 0 0  
Year to date cooling degree days 0 0  
Moisture  
Dew Point 28 °F    
Average Humidity 58    
Maximum Humidity 96    
Minimum Humidity 19    
Precipitation  
Precipitation 0.11 in 0.04 in 0.67 in (1913)
Month to date precipitation 0.78 0.80  
Year to date precipitation 2.70 1.95  
Snow  
Snow 0.00 in 0.00 in 5.00 in (1913)
Month to date snowfall 3.5 2.9  
Since 1 July snowfall 50.5 37.1  
Snow Depth 0.00 in    
Sea Level Pressure  
Sea Level Pressure 29.58 in    
Wind  
Wind Speed 22 mph (West)    
Max Wind Speed 43 mph    
Max Gust Speed 51 mph    
Visibility 8 miles    
Events Snow    
T = Trace of Precipitation, MM = Missing Value Source: NWS Daily Summary

Daily Weather History Graph

Daily Weather History Graph

Search for Another Location

Airport or City:

Trip Planner

Search our weather history database for the weather conditions in past years. The results will help you decide how hot, cold, wet, or windy it might be!

Date:

Astronomy

Apr. 29, 2013 Rise Set
Actual Time 6:02 AM MDT 8:31 PM MDT
Civil Twilight 5:27 AM MDT 9:06 PM MDT
Nautical Twilight 4:43 AM MDT 9:50 PM MDT
Astronomical Twilight 3:52 AM MDT 10:42 PM MDT
Moon 12:12 AM MDT (4/29) 9:18 AM MDT (4/29)
Length of Visible Light 15h 39m
Length of Day
14h 29m
Waning Gibbous, 79% of the Moon is Illuminated
Apr 29
Waning Gibbous
May 2
Last Quarter
May 9
New
May 17
First Quarter
May 24
Full

Hourly Weather History & Observations

Time (MDT) Temp. Windchill Dew Point Humidity Pressure Visibility Wind Dir Wind Speed Gust Speed Precip Events Conditions
12:53 AM 46.0 °F 40.2 °F 27.0 °F 47% 29.62 in 10.0 mi SW 12.7 mph - N/A   Clear
1:53 AM 45.0 °F 39.3 °F 27.0 °F 49% 29.60 in 10.0 mi WSW 11.5 mph - N/A   Clear
2:53 AM 48.9 °F - 26.1 °F 41% 29.57 in 10.0 mi WSW 17.3 mph 23.0 mph N/A   Clear
3:53 AM 50.0 °F - 25.0 °F 38% 29.54 in 10.0 mi WSW 17.3 mph - N/A   Clear
4:53 AM 48.0 °F - 26.1 °F 42% 29.53 in 10.0 mi SW 18.4 mph - N/A   Scattered Clouds
5:53 AM 48.0 °F - 28.0 °F 46% 29.52 in 10.0 mi SW 12.7 mph - N/A   Overcast
6:53 AM 46.9 °F - 28.9 °F 50% 29.52 in 10.0 mi West 8.1 mph - N/A   Overcast
7:53 AM 48.0 °F - 28.0 °F 46% 29.51 in 10.0 mi SW 10.4 mph - N/A   Overcast
8:53 AM 52.0 °F - 28.0 °F 40% 29.49 in 10.0 mi SW 15.0 mph 18.4 mph N/A   Mostly Cloudy
9:53 AM 55.9 °F - 30.9 °F 39% 29.46 in 10.0 mi SW 24.2 mph 33.4 mph N/A   Partly Cloudy
10:53 AM 55.9 °F - 28.9 °F 36% 29.44 in 10.0 mi West 28.8 mph 36.8 mph N/A   Overcast
11:53 AM 60.1 °F - 25.0 °F 26% 29.40 in 10.0 mi WSW 29.9 mph 35.7 mph N/A   Mostly Cloudy
12:53 PM 59.0 °F - 18.0 °F 20% 29.39 in 10.0 mi West 26.5 mph 36.8 mph N/A   Scattered Clouds
1:53 PM 62.1 °F - 25.0 °F 24% 29.39 in 10.0 mi West 27.6 mph 39.1 mph 0.00 in   Mostly Cloudy
2:53 PM 55.9 °F - 25.0 °F 30% 29.41 in 10.0 mi West 28.8 mph 43.7 mph 0.00 in   Mostly Cloudy
3:53 PM 45.0 °F 34.7 °F 32.0 °F 60% 29.49 in 10.0 mi NW 33.4 mph 46.0 mph N/A   Mostly Cloudy
4:53 PM 55.0 °F - 19.0 °F 24% 29.47 in 10.0 mi West 32.2 mph 39.1 mph N/A   Scattered Clouds
5:53 PM 52.0 °F - 17.1 °F 25% 29.49 in 10.0 mi West 26.5 mph 39.1 mph N/A   Partly Cloudy
6:53 PM 48.0 °F - 28.9 °F 48% 29.57 in 10.0 mi WNW 31.1 mph 43.7 mph N/A   Overcast
7:53 PM 43.0 °F 33.1 °F 30.0 °F 60% 29.60 in 10.0 mi WNW 26.5 mph 36.8 mph N/A   Overcast
8:35 PM 39.2 °F 28.3 °F 30.2 °F 70% 29.60 in 10.0 mi West 25.3 mph 34.5 mph N/A   Overcast
8:53 PM 37.0 °F 23.9 °F 32.0 °F 82% 29.65 in 9.0 mi WNW 33.4 mph 41.4 mph 0.00 in Snow Light Snow
9:01 PM 35.6 °F 23.0 °F 33.8 °F 93% 29.63 in 9.0 mi WNW 27.6 mph 41.4 mph 0.00 in Snow Light Snow
9:12 PM 35.6 °F 22.7 °F 33.8 °F 93% 29.64 in 7.0 mi WNW 28.8 mph 35.7 mph 0.00 in Snow Light Snow
9:30 PM 33.8 °F 21.6 °F 32.0 °F 93% 29.66 in 3.0 mi WNW 23.0 mph 32.2 mph 0.02 in Snow Light Snow
9:37 PM 33.8 °F 22.8 °F 32.0 °F 93% 29.66 in 2.0 mi WNW 18.4 mph 28.8 mph 0.03 in Snow Light Snow
9:46 PM 33.8 °F 21.3 °F 32.0 °F 93% 29.67 in 4.0 mi WNW 24.2 mph 33.4 mph 0.04 in Snow Light Snow
9:53 PM 33.1 °F 21.5 °F 30.9 °F 92% 29.70 in 1.8 mi WNW 19.6 mph 33.4 mph 0.04 in Snow Light Snow
10:01 PM 33.8 °F 22.8 °F 30.2 °F 87% 29.68 in 0.8 mi WNW 18.4 mph 26.5 mph 0.02 in Snow Light Snow
10:18 PM 33.8 °F 22.8 °F 30.2 °F 87% 29.69 in 1.0 mi WNW 18.4 mph - 0.05 in Snow Light Snow
10:34 PM 33.8 °F 23.5 °F 30.2 °F 87% 29.70 in 1.8 mi WNW 16.1 mph 25.3 mph 0.06 in Snow Light Snow
10:39 PM 33.8 °F 22.8 °F 30.2 °F 87% 29.70 in 2.0 mi WNW 18.4 mph 25.3 mph 0.06 in Snow Light Snow
10:43 PM 33.8 °F 22.8 °F 30.2 °F 87% 29.70 in 3.0 mi WNW 18.4 mph - 0.06 in Snow Light Snow
10:53 PM 33.1 °F 22.2 °F 30.9 °F 92% 29.74 in 7.0 mi WNW 17.3 mph - 0.07 in Snow Light Snow
11:23 PM 33.8 °F 24.8 °F 32.0 °F 93% 29.72 in 10.0 mi WNW 12.7 mph - 0.00 in   Overcast
11:53 PM 34.0 °F 25.0 °F 32.0 °F 92% 29.75 in 10.0 mi West 12.7 mph - 0.00 in   Overcast